Location: Betra
(48.4113°N, 8.6634°E)
Time: 19:42:50
(UTC+00:00)

Meteor 1-4 Rocket - Pass Details

Date: 23 May 2024
Orbit: 357 x 377 km, 81.2° (Epoch: 23 June)

Event Time Altitude Azimuth Distance (km) Brightness Sun altitude
Exits shadow 00:56:48 64° 141° (SE) 404 1.9 -17.8°
Maximum altitude 00:57:03 70° 100° (E) 388 2.0 -17.8°
Drops below altitude 10° 00:59:58 10° 16° (NNE) 1,351 6.1 -17.6°
Sets 01:01:57 0° 14° (NNE) 2,207 7.5 -17.4°
